[[{"header":{"parameterUnit":"m.s-1","parameterCategory":1,"la1":30.2991,"la2":30.254,"lo1":-89.0895,"lo2":-89.0444,"dy":0.0017,"dx":0.0017,"nx":28,"ny":28,"refTime":"2024-04-17T21:00:00:Z","depth":0,"parameterNumber":2,"parameterNumberName":"U-component_of_WINDS"},"data":[0,0,0,0,0,0,0,0,0,0,0,0,0,0,0,0,0,0,0,0,0,0,0,0,0,0,0,0,0,0,0,0,0,0,0,0,0,0,0,0,0,0,0,0,0,0,0,0,0,0,0,0,0,0,0,0,0,0,-2.4067,-2.4068,0,-2.41,-2.41,-2.41,-2.4083,-2.4082,-2.4081,-2.408,-2.4114,-2.4115,-2.4117,0,0,0,0,0,0,0,0,0,0,0,0,0,-2.3992,-2.3994,-2.4067,-2.4068,-2.4068,-2.4099,-2.41,-2.41,-2.4083,-2.4082,-2.4081,-2.408,-2.4113,-2.4115,-2.4117,0,0,0,0,0,0,0,0,0,0,0,0,0,-2.4025,-2.3994,-2.4067,-2.4063,-2.4063,-2.4099,-2.41,-2.41,-2.4083,-2.4082,-2.4081,-2.408,-2.4112,-2.4115,-2.4117,-2.4159,0,0,-2.4125,-2.4126,0,0,0,0,0,0,0,0,-2.4023,-2.4027,-2.4063,-2.4064,-2.4064,-2.4086,-2.4086,-2.412,-2.4084,-2.4076,-2.408,-2.4079,-2.4106,-2.4109,-2.4117,-2.4161,-2.4162,-2.4125,-2.4127,-2.4128,-2.4129,0,0,0,0,0,0,0,-2.4021,-2.4026,-2.408,-2.4064,-2.4064,-2.406,-2.4064,-2.4092,-2.4098,-2.4076,-2.4075,-2.4079,-2.4105,-2.4115,-2.4118,-2.4163,-2.4125,-2.4128,-2.4129,-2.413,-2.4243,-2.4245,0,0,0,0,0,0,-2.4019,-2.4024,-2.4079,-2.4081,-2.404,-2.4063,-2.4066,-2.408,-2.4097,-2.4099,-2.408,-2.4078,-2.4111,-2.4115,-2.4119,-2.4169,-2.4128,-2.413,-2.4132,-2.4242,-2.4244,-2.4245,0,0,0,0,0,0,-2.4017,-2.4024,-2.4078,-2.4052,-2.4059,-2.4065,-2.4081,-2.4081,-2.4091,-2.41,-2.4101,-2.4089,-2.411,-2.4116,-2.415,-2.417,-2.4132,-2.4134,-2.424,-2.4242,-2.4244,-2.427,0,0,0,0,0,0,-2.4015,-2.4023,-2.4038,-2.4053,-2.406,-2.4107,-2.4082,-2.4083,-2.4095,-2.4093,-2.4109,-2.411,-2.411,-2.4146,-2.4152,-2.4173,-2.4136,-2.4238,-2.4241,-2.4244,-2.4267,-2.4273,-2.4277,0,0,0,0,0,-2.4012,-2.4044,-2.4039,-2.4046,-2.408,-2.4108,-2.4113,-2.4112,-2.4097,-2.4113,-2.4119,-2.411,-2.4168,-2.415,-2.4156,-2.4178,-2.4237,-2.424,-2.4243,-2.4265,-2.4272,-2.4277,0,0,0,0,0,0,-2.4032,-2.4046,-2.4041,-2.4078,-2.4092,-2.4105,-2.4125,-2.4119,-2.4137,-2.4134,-2.4132,-2.4136,-2.4171,-2.4179,-2.4158,-2.422,-2.42,-2.4205,-2.4214,-2.422,-2.4225,-2.4222,-2.4138,0,0,0,0,0,-2.4041,-2.4062,-2.4074,-2.4106,-2.4113,-2.4118,-2.4131,-2.4129,-2.4143,-2.4149,-2.4158,-2.4172,-2.4194,-2.4208,-2.4228,-2.4269,-2.4272,-2.4288,-2.4293,-2.4297,-2.43,-2.4323,-2.433,-2.4256,-2.4256,-2.4256,0,0,-2.4059,-2.4069,-2.4083,-2.411,-2.4121,-2.4143,-2.4123,-2.4148,-2.4165,-2.4153,-2.4185,-2.4192,-2.4209,-2.4246,-2.4263,-2.4253,-2.4322,-2.4301,-2.4304,-2.4306,-2.4327,-2.4334,-2.434,-2.4258,-2.4258,-2.4258,0,0,-2.4103,-2.4113,-2.4141,-2.4153,-2.4169,-2.4173,-2.418,-2.4194,-2.4198,-2.4231,-2.4223,-2.4244,-2.4281,-2.4293,-2.4304,-2.4355,-2.4347,-2.4362,-2.4388,-2.441,-2.4416,-2.4421,-2.4438,-2.4445,-2.4366,-2.4366,-2.4366,0,-2.4123,-2.4157,-2.4156,-2.4182,-2.4194,-2.4186,-2.4214,-2.4225,-2.4248,-2.4257,-2.4246,-2.4293,-2.4303,-2.4343,-2.4356,-2.4366,-2.4374,-2.4359,-2.4415,-2.442,-2.4425,-2.4442,-2.4448,-2.4368,-2.4368,-2.4367,-2.4367,0,-2.4181,-2.4205,-2.4225,-2.4247,-2.4262,-2.4289,-2.4293,-2.4309,-2.4307,-2.4312,-2.4346,-2.4358,-2.4381,-2.4391,-2.4389,-2.4432,-2.4425,-2.4415,-2.4394,-2.4433,-2.4449,-2.4456,-2.437,-2.4369,-2.4369,-2.4369,0,0,-2.4236,-2.4259,-2.4266,-2.4276,-2.4295,-2.4313,-2.4341,-2.4364,-2.4377,-2.4394,-2.4416,-2.4449,-2.444,-2.4452,-2.4452,-2.4471,-2.4511,-2.4459,-2.4459,-2.4467,-2.4559,-2.4566,-2.4573,-2.4507,-2.4508,-2.4509,-2.4557,0,-2.4281,-2.4328,-2.4329,-2.4372,-2.4394,-2.4387,-2.4411,-2.4426,-2.4432,-2.4452,-2.4459,-2.4481,-2.4468,-2.4475,-2.4495,-2.4502,-2.4529,-2.4499,-2.4528,-2.4529,-2.4522,-2.4581,-2.4588,-2.4633,-2.4564,-2.4565,-2.4565,0,-2.4339,-2.4357,-2.4403,-2.4419,-2.4428,-2.4449,-2.4471,-2.449,-2.4507,-2.451,-2.4525,-2.4522,-2.4551,-2.4531,-2.4571,-2.455,-2.4563,-2.4568,-2.457,-2.4571,-2.4548,-2.4583,-2.4647,-2.4654,-2.4575,-2.4574,-2.4574,0,-2.4373,-2.441,-2.4442,-2.4451,-2.4471,-2.4486,-2.4495,-2.4511,-2.4525,-2.4544,-2.4553,-2.4576,-2.4588,-2.4605,-2.4609,-2.4594,-2.4649,-2.4629,-2.4652,-2.4652,-2.4662,-2.4661,-2.4728,-2.4673,-2.4672,-2.4672,-2.4672,0,-2.4422,-2.445,-2.4458,-2.4477,-2.4509,-2.4511,-2.4542,-2.455,-2.4564,-2.4586,-2.4582,-2.4602,-2.4607,-2.4628,-2.4632,-2.4664,-2.467,-2.4673,-2.4673,-2.4672,-2.4672,-2.4679,-2.4675,-2.4674,-2.4674,-2.4673,-2.4673,0,-2.4465,-2.4472,-2.4506,-2.4523,-2.4528,-2.455,-2.4564,-2.4583,-2.459,-2.4617,-2.4624,-2.4634,-2.4659,-2.4665,-2.4695,-2.4697,-2.4735,-2.4733,-2.4729,-2.4729,-2.4751,-2.4748,-2.4823,-2.4833,-2.4773,-2.4773,-2.4774,0,-2.4495,-2.4517,-2.4536,-2.455,-2.456,-2.4583,-2.4597,-2.4601,-2.4616,-2.4637,-2.4654,-2.4679,-2.4699,-2.474,-2.475,-2.4773,-2.4771,-2.4796,-2.4774,-2.4773,-2.477,-2.4768,-2.477,-2.4799,-2.48,-2.48,-2.4801,0,-2.4548,-2.455,-2.4571,-2.4593,-2.461,-2.4628,-2.4645,-2.4657,-2.4663,-2.4681,-2.4706,-2.4722,-2.4753,-2.4778,-2.4802,-2.4812,-2.4807,-2.4808,-2.4814,-2.4813,-2.4809,-2.4811,-2.4739,-2.4806,-2.4805,-2.4805,-2.4804,-2.4804,-2.4585,-2.4604,-2.462,-2.4643,-2.4657,-2.4673,-2.4692,-2.4701,-2.4722,-2.4748,-2.4749,-2.4777,-2.4795,-2.4826,-2.4838,-2.486,-2.4853,-2.4862,-2.4864,-2.4866,-2.4868,-2.4807,-2.4865,-2.4865,-2.4865,-2.4865,-2.4865,0,-2.4637,-2.4647,-2.4669,-2.4693,-2.4711,-2.4706,-2.4725,-2.4741,-2.4766,-2.4783,-2.4802,-2.4833,-2.4857,-2.487,-2.4894,-2.491,-2.4909,-2.4916,-2.4914,-2.4917,-2.4874,-2.4865,-2.4917,-2.4917,-2.4917,-2.4917,-2.4917,-2.4917,-2.4665,-2.4697,-2.4701,-2.474,-2.475,-2.4778,-2.4789,-2.4804,-2.4817,-2.4851,-2.4871,-2.488,-2.4895,-2.4921,-2.4943,-2.4947,-2.4956,-2.4964,-2.4966,-2.4925,-2.492,-2.4914,-2.4906,-2.4966,-2.4966,-2.5007,-2.5007,-2.5008]},{"header":{"parameterUnit":"m.s-1","parameterCategory":1,"la1":30.2991,"la2":30.254,"lo1":-89.0895,"lo2":-89.0444,"dy":0.0017,"dx":0.0017,"nx":28,"ny":28,"refTime":"2024-04-17T21:00:00:Z","depth":0,"parameterNumber":3,"parameterNumberName":"V-component_of_WINDS"},"data":[0,0,0,0,0,0,0,0,0,0,0,0,0,0,0,0,0,0,0,0,0,0,0,0,0,0,0,0,0,0,0,0,0,0,0,0,0,0,0,0,0,0,0,0,0,0,0,0,0,0,0,0,0,0,0,0,0,0,4.6968,4.6968,0,4.6953,4.6953,4.6953,4.6975,4.6976,4.6977,4.6978,4.6957,4.6956,4.6955,0,0,0,0,0,0,0,0,0,0,0,0,0,4.7012,4.7011,4.6968,4.6968,4.6968,4.6953,4.6953,4.6953,4.6975,4.6976,4.6977,4.6978,4.6958,4.6956,4.6955,0,0,0,0,0,0,0,0,0,0,0,0,0,4.6994,4.701,4.6968,4.6977,4.6978,4.6953,4.6953,4.6953,4.6975,4.6976,4.6977,4.6978,4.6958,4.6956,4.6954,4.6919,0,0,4.6949,4.6948,0,0,0,0,0,0,0,0,4.6995,4.6993,4.6976,4.6977,4.6977,4.6968,4.6961,4.6941,4.6975,4.6976,4.6978,4.6979,4.6959,4.6957,4.6952,4.6918,4.6917,4.6948,4.6947,4.6946,4.6946,0,0,0,0,0,0,0,4.6996,4.6993,4.6962,4.6976,4.6976,4.6981,4.698,4.6957,4.6961,4.6976,4.6978,4.6976,4.696,4.6954,4.6952,4.6917,4.6948,4.6947,4.6946,4.6945,4.6854,4.6853,0,0,0,0,0,0,4.6997,4.6994,4.6962,4.6962,4.699,4.6979,4.6978,4.6969,4.6961,4.6961,4.6975,4.6977,4.6956,4.6954,4.6951,4.691,4.6946,4.6945,4.6944,4.6855,4.6854,4.6852,0,0,0,0,0,0,4.6998,4.6994,4.6963,4.6978,4.6975,4.6977,4.6967,4.6968,4.6962,4.6961,4.6961,4.6968,4.6957,4.6954,4.6927,4.6909,4.6944,4.6942,4.6857,4.6855,4.6853,4.6826,0,0,0,0,0,0,4.6999,4.6994,4.6981,4.6978,4.6974,4.6941,4.6966,4.6967,4.696,4.6962,4.6954,4.6954,4.6958,4.693,4.6925,4.6907,4.694,4.6858,4.6856,4.6854,4.6829,4.6824,4.6819,0,0,0,0,0,4.7001,4.6973,4.6981,4.6977,4.6958,4.694,4.6937,4.6944,4.6958,4.6945,4.6944,4.6954,4.6912,4.6927,4.6922,4.6903,4.6859,4.6857,4.6854,4.6831,4.6825,4.682,0,0,0,0,0,0,4.6972,4.6973,4.6981,4.6952,4.6946,4.6943,4.6927,4.6937,4.6925,4.6928,4.6935,4.6933,4.6905,4.6901,4.6918,4.6869,4.6888,4.6884,4.6872,4.6866,4.6862,4.6863,4.6939,0,0,0,0,0,4.6963,4.6949,4.695,4.6924,4.692,4.6924,4.6916,4.6922,4.6915,4.6912,4.6909,4.6901,4.6886,4.6876,4.6862,4.6829,4.6827,4.6813,4.6808,4.6805,4.6801,4.6784,4.6778,4.6843,4.6843,4.6843,0,0,4.6942,4.6941,4.6931,4.6918,4.6914,4.6899,4.6922,4.6904,4.6893,4.6909,4.6885,4.6883,4.6874,4.6844,4.6831,4.684,4.6783,4.6801,4.6798,4.6796,4.6781,4.6774,4.6769,4.6841,4.6841,4.6842,0,0,4.6898,4.6895,4.6874,4.6871,4.6865,4.6868,4.6863,4.686,4.686,4.6836,4.6848,4.6834,4.6808,4.6802,4.6795,4.6751,4.676,4.6746,4.6721,4.6705,4.67,4.6695,4.668,4.6675,4.6742,4.6742,4.6742,0,4.6873,4.6852,4.6862,4.6844,4.6838,4.6855,4.6833,4.6828,4.6817,4.6812,4.6824,4.6793,4.6788,4.6758,4.6747,4.6741,4.6735,4.6747,4.67,4.6696,4.6691,4.6677,4.6671,4.6741,4.6741,4.6741,4.6741,0,4.6822,4.6807,4.679,4.6783,4.6774,4.6754,4.6761,4.6751,4.6758,4.676,4.6736,4.6731,4.6717,4.671,4.6716,4.6681,4.6688,4.6699,4.6718,4.6684,4.667,4.6665,4.6738,4.6739,4.6739,4.674,0,0,4.6757,4.6757,4.6751,4.6748,4.6744,4.6733,4.6714,4.6702,4.6694,4.6687,4.6671,4.665,4.6661,4.6654,4.6659,4.6644,4.6611,4.6658,4.6658,4.665,4.6574,4.6565,4.6559,4.6617,4.6616,4.6615,4.6575,0,4.6714,4.6684,4.6693,4.6662,4.6649,4.6665,4.6649,4.6644,4.6645,4.6634,4.6634,4.662,4.6636,4.6632,4.6618,4.6618,4.6596,4.6621,4.6602,4.6602,4.6605,4.6552,4.6542,4.6504,4.6569,4.6569,4.6568,0,4.6659,4.6652,4.6621,4.6621,4.6615,4.6601,4.6592,4.6581,4.6576,4.6578,4.6571,4.6579,4.656,4.658,4.6554,4.6571,4.6564,4.6563,4.6562,4.656,4.6583,4.6549,4.6492,4.6486,4.656,4.656,4.6561,0,4.6617,4.6599,4.6579,4.6575,4.6575,4.6564,4.6563,4.656,4.6553,4.6545,4.654,4.6529,4.6523,4.6514,4.6519,4.6533,4.6492,4.6512,4.6493,4.6493,4.6484,4.6484,4.6425,4.6479,4.6479,4.6479,4.6479,0,4.6568,4.6548,4.656,4.6547,4.6525,4.6536,4.6513,4.6514,4.6511,4.6498,4.6511,4.6498,4.6506,4.6494,4.6498,4.6476,4.6473,4.6474,4.6475,4.6473,4.6473,4.6468,4.6471,4.6477,4.6478,4.6478,4.6478,0,4.6516,4.6524,4.6502,4.6504,4.6504,4.6488,4.649,4.6477,4.6481,4.6464,4.6461,4.6465,4.6452,4.6456,4.6441,4.6444,4.6417,4.6421,4.6419,4.642,4.6401,4.6403,4.6337,4.6329,4.6387,4.6387,4.6386,0,4.6485,4.647,4.6471,4.6465,4.6464,4.6452,4.6446,4.6456,4.6449,4.6443,4.6432,4.642,4.6411,4.6389,4.639,4.6379,4.6383,4.6361,4.6381,4.638,4.6384,4.6385,4.6384,4.6357,4.6356,4.6355,4.6355,0,4.6428,4.6433,4.6425,4.6418,4.6411,4.6405,4.64,4.6394,4.6403,4.6395,4.6382,4.6376,4.6362,4.635,4.634,4.6338,4.6348,4.6349,4.6344,4.6342,4.6342,4.6342,4.6408,4.635,4.635,4.6351,4.6351,4.6351,4.6386,4.6375,4.6375,4.6365,4.6363,4.6359,4.6349,4.6351,4.6342,4.6333,4.6339,4.6324,4.6321,4.6309,4.6306,4.6295,4.6303,4.6296,4.6294,4.6292,4.629,4.6343,4.6293,4.6293,4.6293,4.6293,4.6293,0,4.6331,4.6332,4.6324,4.6318,4.6311,4.6323,4.6319,4.6311,4.6299,4.6296,4.6288,4.6274,4.6263,4.6265,4.6254,4.6245,4.625,4.6242,4.6243,4.6243,4.6283,4.6288,4.6239,4.6239,4.6239,4.6239,4.6239,4.6239,4.6302,4.6284,4.6289,4.627,4.6271,4.6258,4.6255,4.6252,4.6249,4.6234,4.6226,4.6228,4.6226,4.6216,4.6207,4.6208,4.6203,4.6195,4.6197,4.6234,4.624,4.6245,4.625,4.6193,4.6193,4.6158,4.6158,4.6157]}]]